| time (UTC) | temp F | wind direction | speed MPH | gust MPH | rain 1hr in | rain 24hr in | rain mn in | humidity % | barometer mb |
| 20260510071547 | 44 | 0 | 0.0 | 0.0 | 0.00 | 0.00 | 0.00 | 78 | 1018.2 |
| 20260510070050 | 45 | 0 | 0.0 | 2.0 | 0.00 | 0.00 | 0.00 | 79 | 1018.2 |
| 20260510064552 | 45 | 44 | 2.0 | 3.0 | 0.00 | 0.00 | 0.00 | 78 | 1018.1 |
| 20260510063047 | 45 | 44 | 1.0 | 2.0 | 0.00 | 0.00 | 0.00 | 79 | 1018.2 |
| 20260510061549 | 46 | 44 | 1.0 | 3.0 | 0.00 | 0.00 | 0.00 | 78 | 1018.2 |
| 20260510060052 | 46 | 0 | 1.0 | 3.0 | 0.00 | 0.00 | 0.00 | 78 | 1018.2 |
| 20260510054546 | 46 | 44 | 2.0 | 3.0 | 0.00 | 0.00 | 0.00 | 78 | 1018.4 |
| 20260510053046 | 46 | 0 | 2.0 | 3.0 | 0.00 | 0.00 | 0.00 | 77 | 1018.4 |
| 20260510051546 | 48 | 44 | 1.0 | 2.0 | 0.00 | 0.00 | 0.00 | 74 | 1018.4 |
| 20260510050059 | 49 | 44 | 0.0 | 2.0 | 0.00 | 0.00 | 0.00 | 71 | 1018.4 |
| 20260510044549 | 51 | 190 | 1.0 | 4.0 | 0.00 | 0.00 | 0.00 | 70 | 1018.4 |
| 20260510043048 | 51 | 44 | 2.0 | 4.0 | 0.00 | 0.00 | 0.00 | 70 | 1018.4 |
| 20260510041546 | 52 | 44 | 2.0 | 4.0 | 0.00 | 0.00 | 0.00 | 68 | 1018.4 |
| 20260510040046 | 53 | 190 | 1.0 | 5.0 | 0.00 | 0.00 | 0.00 | 65 | 1018.3 |
| 20260510034557 | 54 | 190 | 2.0 | 7.0 | 0.00 | 0.00 | 0.00 | 62 | 1018.1 |
| 20260510033054 | 56 | 44 | 5.0 | 8.0 | 0.00 | 0.00 | 0.00 | 59 | 1017.8 |
| 20260510031548 | 58 | 45 | 6.0 | 7.0 | 0.00 | 0.00 | 0.00 | 54 | 1017.6 |
| 20260510030046 | 59 | 190 | 2.0 | 3.0 | 0.00 | 0.00 | 0.00 | 50 | 1017.4 |
| 20260510024547 | 61 | 44 | 0.0 | 3.0 | 0.00 | 0.00 | 0.00 | 45 | 1017.2 |
| 20260510023048 | 61 | 190 | 0.0 | 1.0 | 0.00 | 0.00 | 0.00 | 45 | 1017.1 |
| 20260510021637 | 63 | 190 | 0.0 | 2.0 | 0.00 | 0.00 | 0.00 | 43 | 1017.0 |
| 20260510020046 | 64 | 190 | 2.0 | 3.0 | 0.00 | 0.00 | 0.00 | 41 | 1016.9 |
| 20260510014557 | 64 | 190 | 1.0 | 3.0 | 0.00 | 0.00 | 0.00 | 40 | 1017.0 |
| 20260510013057 | 65 | 190 | 3.0 | 5.0 | 0.00 | 0.00 | 0.00 | 39 | 1017.0 |
| 20260510011546 | 65 | 190 | 3.0 | 6.0 | 0.00 | 0.00 | 0.00 | 39 | 1017.0 |
| 20260510010054 | 65 | 0 | 1.0 | 4.0 | 0.00 | 0.00 | 0.00 | 41 | 1017.0 |
| 20260510004544 | 64 | 190 | 0.0 | 4.0 | 0.00 | 0.00 | 0.00 | 43 | 1017.1 |
| 20260510003046 | 64 | 0 | 0.0 | 2.0 | 0.00 | 0.00 | 0.00 | 46 | 1017.1 |
| 20260510001549 | 63 | 0 | 0.0 | 3.0 | 0.00 | 0.00 | 0.00 | 49 | 1017.1 |
| 20260510000050 | 64 | 0 | 0.0 | 2.0 | 0.00 | 0.00 | 0.00 | 47 | 1017.0 |
| 20260509234548 | 65 | 44 | 1.0 | 3.0 | 0.00 | 0.00 | 0.00 | 45 | 1017.0 |
| 20260509233047 | 66 | 224 | 2.0 | 7.0 | 0.00 | 0.00 | 0.00 | 39 | 1017.0 |
| 20260509231552 | 67 | 224 | 1.0 | 6.0 | 0.00 | 0.00 | 0.00 | 38 | 1017.0 |
| 20260509230053 | 68 | 190 | 0.0 | 7.0 | 0.00 | 0.00 | 0.00 | 37 | 1017.2 |
| 20260509224552 | 68 | 224 | 0.0 | 4.0 | 0.00 | 0.00 | 0.00 | 37 | 1017.2 |
| 20260509223048 | 67 | 224 | 0.0 | 6.0 | 0.00 | 0.00 | 0.00 | 38 | 1017.3 |
| 20260509221548 | 67 | 190 | 1.0 | 4.0 | 0.00 | 0.00 | 0.00 | 38 | 1017.3 |
| 20260509220050 | 68 | 0 | 0.0 | 2.0 | 0.00 | 0.00 | 0.00 | 37 | 1017.4 |
| 20260509214547 | 69 | 190 | 1.0 | 8.0 | 0.00 | 0.00 | 0.00 | 36 | 1017.4 |
| 20260509213104 | 67 | 224 | 0.0 | 2.0 | 0.00 | 0.00 | 0.00 | 37 | 1017.6 |
| 20260509211549 | 67 | 224 | 0.0 | 7.0 | 0.00 | 0.00 | 0.00 | 36 | 1017.6 |
| 20260509210051 | 67 | 0 | 0.0 | 3.0 | 0.00 | 0.00 | 0.00 | 36 | 1017.7 |
| 20260509204542 | 67 | 190 | 0.0 | 5.0 | 0.00 | 0.00 | 0.00 | 37 | 1017.7 |
| 20260509203042 | 67 | 190 | 1.0 | 5.0 | 0.00 | 0.00 | 0.00 | 35 | 1017.6 |
| 20260509201545 | 67 | 224 | 1.0 | 9.0 | 0.00 | 0.00 | 0.00 | 35 | 1017.6 |
| 20260509200052 | 66 | 190 | 4.0 | 7.0 | 0.00 | 0.00 | 0.00 | 37 | 1017.6 |
| 20260509194555 | 66 | 224 | 1.0 | 10.0 | 0.00 | 0.00 | 0.00 | 37 | 1017.7 |
| 20260509193047 | 67 | 0 | 0.0 | 3.0 | 0.00 | 0.00 | 0.00 | 35 | 1017.8 |
| 20260509191556 | 66 | 224 | 1.0 | 7.0 | 0.00 | 0.00 | 0.00 | 34 | 1017.7 |
| 20260509190049 | 66 | 190 | 1.0 | 3.0 | 0.00 | 0.00 | 0.00 | 35 | 1017.7 |
| 20260509184550 | 66 | 190 | 0.0 | 6.0 | 0.00 | 0.00 | 0.00 | 36 | 1017.8 |
| 20260509183056 | 65 | 0 | 3.0 | 6.0 | 0.00 | 0.00 | 0.00 | 37 | 1017.7 |
| 20260509181550 | 63 | 190 | 5.0 | 7.0 | 0.00 | 0.00 | 0.00 | 38 | 1017.6 |
| 20260509180055 | 64 | 190 | 1.0 | 3.0 | 0.00 | 0.00 | 0.00 | 37 | 1017.7 |
| 20260509174549 | 63 | 224 | 0.0 | 6.0 | 0.00 | 0.00 | 0.00 | 37 | 1017.5 |
| 20260509173053 | 63 | 190 | 2.0 | 6.0 | 0.00 | 0.00 | 0.00 | 36 | 1017.4 |
| 20260509171549 | 65 | 0 | 1.0 | 5.0 | 0.00 | 0.00 | 0.00 | 34 | 1017.3 |
| 20260509170046 | 64 | 44 | 2.0 | 6.0 | 0.00 | 0.00 | 0.00 | 36 | 1017.3 |
| 20260509164546 | 63 | 0 | 0.0 | 4.0 | 0.00 | 0.00 | 0.00 | 38 | 1017.3 |
| 20260509163051 | 63 | 190 | 2.0 | 6.0 | 0.00 | 0.00 | 0.00 | 39 | 1017.3 |
| 20260509161557 | 63 | 190 | 0.0 | 1.0 | 0.00 | 0.00 | 0.00 | 40 | 1017.2 |
| 20260509160051 | 61 | 44 | 2.0 | 4.0 | 0.00 | 0.00 | 0.00 | 42 | 1017.0 |
| 20260509154551 | 60 | 190 | 1.0 | 4.0 | 0.00 | 0.00 | 0.00 | 42 | 1016.9 |
| 20260509153056 | 59 | 0 | 2.0 | 3.0 | 0.00 | 0.00 | 0.00 | 44 | 1016.8 |
| 20260509151546 | 58 | 190 | 1.0 | 3.0 | 0.00 | 0.00 | 0.00 | 44 | 1016.7 |
| 20260509150050 | 59 | 44 | 0.0 | 4.0 | 0.00 | 0.00 | 0.00 | 46 | 1016.6 |
| 20260509144545 | 59 | 45 | 1.0 | 3.0 | 0.00 | 0.00 | 0.00 | 43 | 1016.5 |
| 20260509143051 | 58 | 45 | 0.0 | 2.0 | 0.00 | 0.00 | 0.00 | 46 | 1016.4 |
| 20260509141546 | 56 | 190 | 1.0 | 3.0 | 0.00 | 0.00 | 0.00 | 48 | 1016.3 |
| 20260509140103 | 56 | 0 | 1.0 | 2.0 | 0.00 | 0.00 | 0.00 | 49 | 1016.2 |
| 20260509134549 | 55 | 0 | 0.0 | 0.0 | 0.00 | 0.00 | 0.00 | 54 | 1016.1 |
| 20260509133046 | 53 | 0 | 0.0 | 1.0 | 0.00 | 0.00 | 0.00 | 55 | 1015.9 |
| 20260509131549 | 52 | 0 | 0.0 | 1.0 | 0.00 | 0.00 | 0.00 | 55 | 1015.7 |
| 20260509130046 | 52 | 0 | 0.0 | 1.0 | 0.00 | 0.00 | 0.00 | 57 | 1015.6 |
| 20260509124552 | 51 | 0 | 0.0 | 2.0 | 0.00 | 0.00 | 0.00 | 57 | 1015.0 |
| 20260509123050 | 51 | 0 | 0.0 | 0.0 | 0.00 | 0.00 | 0.00 | 56 | 1015.1 |
| 20260509121554 | 51 | 0 | 0.0 | 2.0 | 0.00 | 0.00 | 0.00 | 55 | 1014.8 |
| 20260509120050 | 51 | 190 | 2.0 | 3.0 | 0.00 | 0.00 | 0.00 | 56 | 1014.8 |
| 20260509114547 | 51 | 0 | 0.0 | 1.0 | 0.00 | 0.00 | 0.00 | 55 | 1014.5 |
| 20260509113044 | 51 | 0 | 0.0 | 2.0 | 0.00 | 0.00 | 0.00 | 54 | 1014.4 |
| 20260509111539 | 51 | 0 | 0.0 | 4.0 | 0.00 | 0.00 | 0.00 | 54 | 1014.2 |
| 20260509110039 | 51 | 190 | 0.0 | 0.0 | 0.00 | 0.00 | 0.00 | 53 | 1014.1 |
| 20260509104539 | 52 | 0 | 0.0 | 0.0 | 0.00 | 0.00 | 0.00 | 53 | 1013.7 |
| 20260509103100 | 52 | 190 | 0.0 | 2.0 | 0.00 | 0.00 | 0.00 | 53 | 1013.7 |
| 20260509101548 | 52 | 0 | 0.0 | 2.0 | 0.00 | 0.00 | 0.00 | 52 | 1013.6 |
| 20260509100048 | 51 | 190 | 0.0 | 2.0 | 0.00 | 0.00 | 0.00 | 54 | 1013.4 |
| 20260509094554 | 51 | 190 | 0.0 | 1.0 | 0.00 | 0.00 | 0.00 | 54 | 1013.1 |
| 20260509093049 | 52 | 0 | 0.0 | 0.0 | 0.00 | 0.00 | 0.00 | 52 | 1012.9 |
| 20260509091551 | 52 | 0 | 0.0 | 0.0 | 0.00 | 0.00 | 0.00 | 51 | 1012.8 |
| 20260509090055 | 53 | 0 | 0.0 | 0.0 | 0.00 | 0.00 | 0.00 | 49 | 1012.7 |
| 20260509084549 | 54 | 0 | 0.0 | 1.0 | 0.00 | 0.00 | 0.00 | 49 | 1012.4 |
| 20260509083105 | 54 | 0 | 0.0 | 0.0 | 0.00 | 0.00 | 0.00 | 48 | 1012.3 |
| 20260509081540 | 55 | 0 | 0.0 | 1.0 | 0.00 | 0.00 | 0.00 | 46 | 1012.3 |
| 20260509080052 | 56 | 190 | 0.0 | 1.0 | 0.00 | 0.00 | 0.00 | 46 | 1012.3 |
| 20260509074608 | 56 | 190 | 1.0 | 3.0 | 0.00 | 0.00 | 0.00 | 45 | 1012.2 |
| 20260509073106 | 57 | 0 | 0.0 | 1.0 | 0.00 | 0.00 | 0.00 | 44 | 1012.1 |